Location: *
(41.7492°S, 135.4150°W)
Time: 22:41:27
(UTC+00:00)

METEOR M2 - Pass Details

Date: 06 July 2022
Orbit: 818 x 827 km, 98.4° (Epoch: 17 August)

Event Time Altitude Azimuth Distance (km) Brightness Sun altitude
Exits shadow 02:50:37 16° 108° (ESE) 2,031 ? -12.1°
Maximum altitude 02:52:01 18° 89° (E) 1,944 ? -12.3°
Drops below altitude 10° 02:55:35 10° 47° (NE) 2,428 ? -13.0°
Sets 02:58:42 0° 28° (NNE) 3,352 ? -13.5°
